Flag for Germany Weather past 2 weeks in Idar-Oberstein, Rhineland-Palatinate, Germany

Now
39 °F

Light rain. Passing clouds.


Feels Like: 30 °F
Forecast: 39 / 42 °F
Wind: 17 mph from West

Location: Hahn

Current Time: Dec 20, 2014 at 8:44:22 PM

Latest Report: Dec 20, 2014 at 7:50 PM


Visibility: N/A

Pressure: 30.21 "Hg

Humidity: 87%

Dew point: 36 °F

Location of Idar-ObersteinLocation

Historic Weather in Idar-Oberstein — Graph

°F

Idar-Oberstein temperature yesterday

Maximum temperature yesterday: 48 °F (at 12:20 AM)
Minimum temperature yesterday: 37 °F (at 10:50 PM)
Average temperature yesterday: 46 °F

Past Weeks' High & Low Weather Summary

 TemperatureHumidityPressure
High50 °F (Dec 18, 12:50 PM)100% (Dec 5, 7:20 PM)30.36 "Hg (Dec 5, 7:20 PM)
Low30 °F (Dec 9, 3:50 AM)56% (Dec 7, 11:50 AM)29.53 "Hg (Dec 12, 3:50 PM)
Average37 °F94%29.98 "Hg
* Reported Dec 5 7:20 PM — Dec 20 7:20 PM, Idar-Oberstein, Weather by CustomWeather, © 2014

Note: Actual official high and low records may vary slightly from our data, if they occured in-between our weather recording intervals... More about our weather records

Advertising

Idar-Oberstein weather history for previous 24 hours

 ConditionsComfort  
Time TempWeatherWind HumidityBarometerVisibility
7:20 PM
Dec 20
39 °FPartly cloudy.21 mph87%30.21 "HgN/A
6:50 PM39 °FSprinkles. Passing clouds.18 mph87%30.18 "HgN/A
6:20 PM39 °FSprinkles. Passing clouds.20 mph87%30.18 "HgN/A
5:50 PM39 °FPartly cloudy.20 mph87%30.15 "HgN/A
5:20 PM39 °FPartly cloudy.22 mph81%30.15 "HgN/A
4:50 PM39 °FPartly cloudy.23 mph81%30.15 "HgN/A
4:20 PM39 °FBroken clouds.21 mph87%30.15 "HgN/A
3:50 PM39 °FLight rain. Partly sunny.20 mph87%30.15 "HgN/A
3:20 PM37 °FBroken clouds.16 mph93%30.15 "HgN/A
2:50 PM37 °FPartly sunny.16 mph100%30.15 "HgN/A
2:20 PM37 °FPartly sunny.20 mph93%30.12 "HgN/A
1:50 PM37 °FLight rain. Partly sunny.18 mph100%30.12 "Hg4 mi
1:20 PM37 °FLight rain. Partly sunny.18 mph93%30.15 "Hg4 mi
12:50 PM37 °FLight rain. Partly sunny.20 mph93%30.15 "Hg4 mi
12:20 PM37 °FLight rain. Partly sunny.20 mph93%30.15 "Hg4 mi
12:03 PM37 °FLight rain. Partly sunny.20 mph93%30.15 "Hg4 mi
11:50 AM37 °FLight rain. Partly sunny.18 mph93%30.15 "HgN/A
11:20 AM37 °FPartly sunny.21 mph93%30.18 "HgN/A
10:50 AM37 °FLight rain. Partly sunny.21 mph93%30.18 "HgN/A
10:20 AM37 °FBroken clouds.17 mph87%30.18 "HgN/A
9:50 AM37 °FPartly sunny.17 mph87%30.18 "HgN/A
9:20 AM37 °FPartly sunny.17 mph87%30.18 "HgN/A
8:50 AM36 °FPartly sunny.18 mph93%30.18 "HgN/A
8:20 AM36 °FPassing clouds.16 mph93%30.18 "HgN/A
7:50 AM36 °FPassing clouds.16 mph93%30.18 "HgN/A
7:20 AM36 °FPassing clouds.18 mph93%30.18 "HgN/A
6:50 AM36 °FPassing clouds.16 mph93%30.18 "HgN/A
6:20 AM36 °FPassing clouds.16 mph93%30.21 "HgN/A
5:50 AM36 °FPassing clouds.14 mph93%30.18 "HgN/A
5:20 AM36 °FPassing clouds.14 mph93%30.18 "HgN/A
4:50 AM36 °FPassing clouds.14 mph93%30.18 "HgN/A
4:20 AM36 °FPassing clouds.12 mph93%30.18 "HgN/A
3:50 AM36 °FPassing clouds.14 mph93%30.18 "HgN/A
3:20 AM36 °FPassing clouds.14 mph93%30.18 "HgN/A
2:50 AM36 °FPassing clouds.14 mph93%30.18 "HgN/A
2:20 AM36 °FPassing clouds.13 mph93%30.18 "HgN/A
1:50 AM36 °FPassing clouds.13 mph93%30.18 "HgN/A
1:20 AM37 °FPassing clouds.14 mph87%30.15 "HgN/A
12:50 AM37 °FPassing clouds.14 mph87%30.15 "HgN/A
12:20 AM37 °FPassing clouds.12 mph87%30.15 "HgN/A
11:50 PM
Dec 19
37 °FPassing clouds.14 mph93%30.15 "HgN/A
11:20 PM37 °FPassing clouds.13 mph93%30.15 "HgN/A
10:50 PM37 °FPassing clouds.15 mph93%30.12 "HgN/A
10:20 PM39 °FPassing clouds.17 mph87%30.12 "HgN/A
9:50 PM41 °FPassing clouds.16 mph81%30.09 "HgN/A
9:20 PM41 °FPassing clouds.15 mph87%30.09 "HgN/A
8:50 PM43 °FPassing clouds.14 mph87%30.07 "HgN/A
8:20 PM43 °FPartly cloudy.15 mph87%30.04 "HgN/A
Weather by CustomWeather, © 2014

See weather overviewHow to use our weather pages